Welcome to the New NWS' Forecast!
Most changes are behind the scenes, but click here for differences you might notice.
Latest weather observations around

Monticello, Monticello Municipal Airport/Ellis Field (KLLQ)

Using English Units (Switch to International System of Units)
Date/ Time (CST) Wind (mph) Vis. (mi) Weather Sky Cond. Temp (°F) Rel. Humidity Wind Chill (°F) Heat Index (°F) Pressure Precip. (in)
Air Dwpt 6 hour Altimeter (inHg) Sea level (inHg) 1 hr 3 hr 6 hr
Max Min
Dec 14 01:53 W 9 10 Clear CLR 46 31     55% 41   29.91 29.91      
Dec 14 00:53 WSW 7 10 Clear CLR 46 30     53% 42   29.9 29.9      
Dec 13 23:53 WSW 6 10 Clear CLR 46 30     53% 43   29.92 29.91      
Dec 13 22:53 WSW 8 10 Clear CLR 50 29     44% 47   29.91 29.91      
Dec 13 21:53 WSW 9 10 Clear CLR 51 29     42%     29.9 29.9      
Dec 13 20:53 WSW 10 10 Clear CLR 53 28     38%     29.89 29.89      
Dec 13 19:53 SW 13 10 Clear CLR 55 27     34%     29.88 29.88      
Dec 13 18:53 SW 7 10 Clear CLR 55 26     32%     29.88 29.88      
Dec 13 17:53 SW 7 10 Clear CLR 56 24     29%     29.87 29.87      
Dec 13 16:53 SSW 10 10 Clear CLR 59 23     25%     29.84 29.84      
Dec 13 15:53 SW 14 10 Clear CLR 63 22     21%     29.86 29.85      
Dec 13 14:53 SW 17 10 Clear CLR 64 22     20%     29.88 29.88      
Dec 13 13:53 SSW 11 10 Clear CLR 63 22     21%     29.9 29.89      
Dec 13 12:53 SW 14 10 Clear   60 21     22%     29.94 29.95      
Dec 13 11:53 SW 17 10 Clear CLR 57 21     24%     29.98 29.98      
Dec 13 10:53 SSW 14 10 Clear CLR 53 20     27%     30.01 30.01      
Dec 13 09:53 SW 13 10 Clear CLR 49 16     27% 44   30.05 30.05      
Dec 13 08:53 SW 9 10 Clear CLR 45 21     38% 40   30.07 30.07      
Dec 13 07:53 SW 6 10 Clear CLR 38 20     48% 33   30.08 30.08      
Dec 13 05:53 Calm 10 Clear CLR 31 22     69%     30.09 30.09      
Dec 13 04:53 W 5 10 Clear CLR 29 24     82% 24   30.1 30.1      
Dec 13 03:53 Calm 10 Clear CLR 30 24     78%     30.12 30.12      
Dec 13 02:53 Calm 10 Clear CLR 29 23     78%     30.14 30.14      
Dec 13 01:53 Calm 10 Clear CLR 29 24     82%     30.15 30.15      
Dec 13 00:53 Calm 10 Clear CLR 30 23     75%     30.16 30.16      
Dec 12 23:53 Calm 10 Clear CLR 31 24     75%     30.18 30.18      
Dec 12 22:53 Calm 10 Clear CLR 31 24     75%     30.18 30.18      
Dec 12 21:53 Calm 10 Clear CLR 32 24     72%     30.18 30.18      
Dec 12 20:53 Calm 10 Clear CLR 33 23     66%     30.18 30.18      
Dec 12 19:53 Calm 10 Clear CLR 35 25     66%     30.19 30.19      
Dec 12 18:53 Calm 10 Clear CLR 39 23     52%     30.19 30.19      
Dec 12 17:53 Calm 10 Clear CLR 44 22     41%     30.19 30.19      
Dec 12 16:53 NE 3 10 Clear CLR 50 20     30% 49   30.19 30.19      
Dec 12 15:53 NNW 5 10 Clear CLR 55 17     22%     30.18 30.18      
Dec 12 14:53 7 10 Clear CLR 56 17     21%     30.19 30.19      
Dec 12 13:53 NNW 5 10 Clear CLR 55 16     21%     30.2 30.19      
Dec 12 12:53 NNW 8 10 Clear CLR 55 16     21%     30.22 30.21      
Dec 12 11:53 3 10 Clear CLR 52 20     28%     30.23 30.23      
Dec 12 10:53 N 8 10 Clear CLR 52 22     31%     30.27 30.27      
Dec 12 09:53 NW 9 10 Clear CLR 50 27     41% 46   30.26 30.26      
Dec 12 08:53 NW 8 10 Clear CLR 47 30     52% 43   30.24 30.24      
Dec 12 07:53 NW 9 10 Clear CLR 45 30     56% 40   30.22 30.22      
Dec 12 06:53 WNW 6 10 Clear CLR 42 28     57% 38   30.2 30.2      
Dec 12 05:53 NW 5 10 Clear CLR 46 28     49% 44   30.18 30.18      
Dec 12 04:53 NNW 5 10 Clear CLR 47 28     48% 45   30.15 30.14      
Dec 12 03:53 3 10 Clear CLR 50 28     42% 49   30.13 30.12      
Dec 12 02:53 NNW 6 10 Clear CLR 49 25     39% 46   30.11 30.11      
Dec 12 01:53 WNW 3 10 Clear CLR 45 26     47% 44   30.09 30.09      
Dec 12 00:53 Calm 10 Clear CLR 47 27     46%     30.07 30.06      
Dec 11 23:53 WNW 3 10 Clear CLR 51 26     38%     30.06 30.05      
Dec 11 22:53 NW 6 10 Clear CLR 55 27     34%     30.03 30.03      
Dec 11 21:53 W 8 10 Clear CLR 56 29     35%     30 30      
Dec 11 20:53 SW 8 10 Clear CLR 58 29     33%     29.99 29.99      
Dec 11 19:53 SW 8 10 Clear CLR 61 28     28%     29.99 29.99      
Dec 11 18:53 SW 10 10 Clear CLR 63 28     27%     29.99 29.99      
Dec 11 17:53 SSW 6 10 Clear CLR 61 28     28%     30 29.99      
Dec 11 16:53 SW 5 10 Clear CLR 66 26     22%     30 30      
Dec 11 15:53 SW 8 10 Clear CLR 71 25     18%   69 30.01 30      
Dec 11 14:53 SW 11 10 Clear CLR 72 25     17%   70 30.01 30.01      
Dec 11 13:53 WSW 9 10 Clear CLR 71 27     19%   69 30.05 30.04      
Dec 11 12:53 SSW 13 10 Clear CLR 69 27     21%     30.09 30.09      
Dec 11 11:53 SSW 13 10 Clear CLR 66 28     24%     30.14 30.13      
Dec 11 10:53 WSW 8 10 Clear CLR 61 28     28%     30.17 30.17      
Dec 11 09:53 W 6 10 Clear CLR 56 30     37%     30.2 30.2      
Dec 11 08:53 W 6 10 Clear CLR 48 30     50% 45   30.2 30.2      
Dec 11 07:53 W 7 10 Clear CLR 44 29     55% 40   30.21 30.2      
Dec 11 06:53 W 7 10 Clear CLR 41 29     62% 36   30.21 30.21      
Dec 11 05:53 W 6 10 Clear CLR 41 29     62% 37   30.21 30.21      
Dec 11 04:53 W 8 10 Clear CLR 43 29     57% 38   30.21 30.21      
Dec 11 03:53 W 6 10 Clear CLR 40 30     67% 36   30.2 30.2      
Dec 11 02:53 W 7 10 Clear CLR 44 29     55% 40   30.22 30.22      
Dec 11 01:53 W 6 10 Clear CLR 42 29     59% 38   30.22 30.22      
Jun 12 05:48 SSE 7 10 Cloudy OVC009 75 73     94%   77 30.03        
Jun 12 03:11 SE 3 10 Cloudy OVC009 74 71     91%   75 30        
Jun 11 22:53 SSE 6 10 Clear CLR 76 70     82%   77 30.02 30.01      
Jun 11 14:53 5 10 Mostly Clear FEW039 88 69     54%   92 30.02 30.01      
Jun 11 01:53 SSE 5 10 Clear CLR 70 64     81%     29.99        
Jun 08 02:53 3 10 Clear CLR 63 56     78%     29.95 29.94      
Jun 07 21:53 Calm 10 Clear CLR 67 59     76%     29.95 29.94      
Jun 07 20:53 NNW 3 10 Clear CLR 68 60     76%     29.94 29.93      
Jun 07 10:53 NE 13 10 Clear CLR 80 56     44%   80 29.95 29.94      
Jun 06 12:26 ENE 18 10 Partly Cloudy FEW019 SCT025 82 72     72%   87 29.79